FW1323 Weather Reports


time (UTC)temp
C
wind
direction
speed
KPH
gust
KPH
rain 1hr
cm
rain 24hr
cm
rain mn
cm
humidity
%
barometer
mb
20260902195846 33 245 9.7 20.9 0.00 0.00 0.00 60 1016.2
20260902195333 33 247 14.5 19.3 0.00 0.00 0.00 60 1016.3
20260902194821 33 212 9.7 19.3 0.00 0.00 0.00 62 1016.2
20260902194550 33 230 9.7 19.3 0.00 0.00 0.00 63 1014.1
20260902194349 33 229 9.7 24.1 0.00 0.00 0.00 62 1016.4
20260902193835 33 229 11.3 24.1 0.00 0.00 0.00 62 1016.3
20260902193325 33 236 8.0 22.5 0.00 0.00 0.00 62 1016.3
20260902193035 33 231 12.9 22.5 0.00 0.00 0.00 62 1014.1
20260902192833 33 228 9.7 20.9 0.00 0.00 0.00 62 1016.4
20260902192322 33 287 8.0 29.0 0.00 0.00 0.00 61 1016.5
20260902191833 33 241 12.9 29.0 0.00 0.00 0.00 60 1016.7
20260902191536 33 210 12.9 22.5 0.00 0.00 0.00 61 1014.4
20260902191321 33 253 9.7 19.3 0.00 0.00 0.00 62 1016.7
20260902190848 33 216 4.8 17.7 0.00 0.00 0.00 63 1016.8
20260902190335 33 247 11.3 19.3 0.00 0.00 0.00 62 1016.8
20260902190024 33 220 11.3 19.3 0.00 0.00 0.00 62 1014.6
20260902185822 33 242 12.9 19.3 0.00 0.00 0.00 62 1016.8
20260902185330 33 166 9.7 17.7 0.00 0.00 0.00 64 1016.8
20260902184838 33 213 8.0 14.5 0.00 0.00 0.00 65 1016.7
20260902184538 32 240 6.4 16.1 0.00 0.00 0.00 65 1014.5
20260902184327 32 261 9.7 16.1 0.00 0.00 0.00 64 1016.8
20260902183834 32 225 9.7 19.3 0.00 0.00 0.00 64 1016.7
20260902183323 32 242 12.9 19.3 0.00 0.00 0.00 64 1016.9
20260902183102 32 274 9.7 17.7 0.00 0.00 0.00 64 1014.6
20260902182849 32 259 11.3 20.9 0.00 0.00 0.00 64 1016.8
20260902182321 32 295 12.9 20.9 0.00 0.00 0.00 63 1016.8
20260902181849 32 226 9.7 24.1 0.00 0.00 0.00 64 1016.9
20260902181536 32 178 9.7 24.1 0.00 0.00 0.00 64 1014.6
20260902181333 32 259 16.1 24.1 0.00 0.00 0.00 63 1017.0
20260902180820 32 232 9.7 22.5 0.00 0.00 0.00 63 1016.9
20260902180330 32 269 12.9 22.5 0.00 0.00 0.00 64 1017.0
20260902180039 32 232 12.9 22.5 0.00 0.00 0.00 63 1014.9
20260902175836 33 266 12.9 20.9 0.00 0.00 0.00 64 1017.1
20260902175325 33 228 8.0 17.7 0.00 0.00 0.00 65 1017.1
20260902174831 33 257 9.7 16.1 0.00 0.00 0.00 64 1017.2
20260902174521 33 260 11.3 16.1 0.00 0.00 0.00 64 1015.0
20260902174321 33 272 4.8 17.7 0.00 0.00 0.00 66 1017.2
20260902173827 33 239 4.8 16.1 0.00 0.00 0.00 65 1017.3
20260902173339 33 222 12.9 16.1 0.00 0.00 0.00 65 1017.4
20260902173028 33 317 3.2 16.1 0.00 0.00 0.00 65 1015.2
20260902172828 33 193 9.7 16.1 0.00 0.00 0.00 65 1017.5
20260902172335 33 216 9.7 16.1 0.00 0.00 0.00 65 1017.5
20260902171822 33 185 11.3 16.1 0.00 0.00 0.00 65 1017.4
20260902171531 32 217 8.0 16.1 0.00 0.00 0.00 66 1015.2
20260902171329 32 226 6.4 14.5 0.00 0.00 0.00 67 1017.5
20260902170838 32 221 8.0 14.5 0.00 0.00 0.00 67 1017.5
20260902170345 32 303 8.0 19.3 0.00 0.00 0.00 67 1017.5
20260902170138 32 237 8.0 19.3 0.00 0.00 0.00 67 1015.4
20260902165833 32 249 8.0 19.3 0.00 0.00 0.00 66 1017.6
20260902165340 32 235 8.0 19.3 0.00 0.00 0.00 66 1017.6
20260902164827 32 272 8.0 19.3 0.00 0.00 0.00 67 1017.6
20260902164541 32 237 9.7 19.3 0.00 0.00 0.00 67 1015.4
20260902164338 32 219 11.3 16.1 0.00 0.00 0.00 66 1017.6
20260902163826 32 185 4.8 14.5 0.00 0.00 0.00 68 1017.6
20260902163334 32 247 11.3 16.1 0.00 0.00 0.00 68 1017.8
20260902163023 31 201 8.0 16.1 0.00 0.00 0.00 69 1015.5
20260902162822 31 214 6.4 16.1 0.00 0.00 0.00 68 1017.7
20260902162329 32 195 9.7 17.7 0.00 0.00 0.00 69 1017.7
20260902161836 31 193 12.9 19.3 0.00 0.00 0.00 70 1017.6
20260902161524 31 205 9.7 19.3 0.00 0.00 0.00 70 1015.5
20260902161323 31 202 14.5 22.5 0.00 0.00 0.00 70 1017.7
20260902160831 31 245 8.0 14.5 0.00 0.00 0.00 71 1017.7
20260902160357 31 273 8.0 16.1 0.00 0.00 0.00 70 1017.6
20260902160026 31 249 9.7 16.1 0.00 0.00 0.00 70 1015.5
20260902155826 31 283 6.4 17.7 0.00 0.00 0.00 70 1017.8
20260902155338 31 243 9.7 17.7 0.00 0.00 0.00 71 1017.6
20260902154827 31 235 6.4 14.5 0.00 0.00 0.00 72 1017.7
20260902154537 31 271 3.2 14.5 0.00 0.00 0.00 72 1015.5
20260902154336 31 205 4.8 16.1 0.00 0.00 0.00 72 1017.8
20260902153824 31 228 9.7 19.3 0.00 0.00 0.00 72 1017.7
20260902153331 31 267 9.7 19.3 0.00 0.00 0.00 72 1017.7
20260902153040 30 217 9.7 16.1 0.00 0.00 0.00 73 1015.5
20260902152839 30 212 9.7 16.1 0.00 0.00 0.00 74 1017.7
20260902152326 30 281 4.8 19.3 0.00 0.00 0.00 74 1017.7
20260902151836 30 320 8.0 16.1 0.00 0.00 0.00 75 1017.7
20260902151523 30 237 6.4 16.1 0.00 0.00 0.00 76 1015.6
20260902151323 30 246 11.3 16.1 0.00 0.00 0.00 75 1017.8
20260902150835 30 272 8.0 12.9 0.00 0.00 0.00 75 1017.9
20260902150342 30 236 8.0 14.5 0.00 0.00 0.00 76 1018.0
20260902150052 29 235 9.7 14.5 0.00 0.00 0.00 76 1015.8
20260902145850 29 242 526.3 526.3 0.00 0.00 0.00 76 1017.6
20260902145339 29 277 6.4 16.1 0.00 0.00 0.00 76 1018.0
20260902144828 29 235 9.7 16.1 0.00 0.00 0.00 77 1018.0
20260902144542 28 241 9.7 16.1 0.00 0.00 0.00 77 1015.7
20260902144335 29 287 6.4 16.1 0.00 0.00 0.00 77 1017.9
20260902143826 28 249 6.4 14.5 0.00 0.00 0.00 77 1018.0
20260902143351 28 216 6.4 16.1 0.00 0.00 0.00 78 1018.0
20260902143040 28 264 8.0 16.1 0.00 0.00 0.00 79 1015.9
20260902142837 28 274 9.7 16.1 0.00 0.00 0.00 78 1017.9
20260902142325 28 274 4.8 12.9 0.00 0.00 0.00 80 1017.9
20260902141831 28 256 6.4 11.3 0.00 0.00 0.00 80 1017.9
20260902141523 27 232 4.8 12.9 0.00 0.00 0.00 80 1015.7
20260902141323 27 247 6.4 12.9 0.00 0.00 0.00 80 1017.8
20260902140830 27 213 8.0 12.9 0.00 0.00 0.00 81 1017.7
20260902140339 27 253 8.0 14.5 0.00 0.00 0.00 81 1017.7
20260902140027 27 244 8.0 14.5 0.00 0.00 0.00 82 1015.7
20260902135826 27 243 9.7 12.9 0.00 0.00 0.00 82 1017.8
20260902135334 27 224 6.4 14.5 0.00 0.00 0.00 83 1017.9
20260902134821 27 235 9.7 14.5 0.00 0.00 0.00 83 1017.9
20260902134532 26 211 8.0 14.5 0.00 0.00 0.00 84 1015.7
20260902134329 26 284 6.4 12.9 0.00 0.00 0.00 84 1017.9
20260902133836 26 236 6.4 12.9 0.00 0.00 0.00 85 1018.0
20260902133345 26 247 6.4 12.9 0.00 0.00 0.00 85 1017.9
20260902133032 25 228 6.4 12.9 0.00 0.00 0.00 85 1016.0
20260902132831 26 225 6.4 14.5 0.00 0.00 0.00 85 1018.0
20260902132324 25 233 8.0 14.5 0.00 0.00 0.00 86 1018.0
20260902131832 25 247 9.7 12.9 0.00 0.00 0.00 86 1017.9
20260902131521 25 266 6.4 12.9 0.00 0.00 0.00 86 1016.0
20260902131320 25 237 6.4 14.5 0.00 0.00 0.00 86 1017.9
20260902130830 25 253 9.7 14.5 0.00 0.00 0.00 86 1018.0
20260902130338 25 232 6.4 12.9 0.00 0.00 0.00 86 1017.9
20260902130032 25 231 4.8 12.9 0.00 0.00 0.00 87 1015.9
20260902125826 25 244 8.0 12.9 0.00 0.00 0.00 86 1018.0
20260902125332 25 242 4.8 11.3 0.00 0.00 0.00 87 1018.0
20260902124821 24 248 9.7 11.3 0.00 0.00 0.00 87 1018.0
20260902124530 24 251 6.4 11.3 0.00 0.00 0.00 87 1015.8
20260902124329 24 251 6.4 11.3 0.00 0.00 0.00 88 1017.9
20260902123822 24 212 4.8 11.3 0.00 0.00 0.00 88 1017.9
20260902123329 23 246 6.4 9.7 0.00 0.00 0.00 89 1017.9
20260902123056 23 245 4.8 9.7 0.00 0.00 0.00 89 1015.8
20260902122837 23 251 6.4 9.7 0.00 0.00 0.00 89 1018.0
20260902122325 23 226 4.8 11.3 0.00 0.00 0.00 90 1017.9
20260902121854 23 239 4.8 9.7 0.00 0.00 0.00 90 1017.9
20260902121520 23 226 1.6 8.0 0.00 0.00 0.00 90 1015.6
20260902121320 23 220 3.2 8.0 0.00 0.00 0.00 91 1017.7
20260902120828 23 236 3.2 8.0 0.00 0.00 0.00 91 1017.6
20260902120337 23 232 3.2 6.4 0.00 0.00 0.00 91 1017.6
20260902120100 22 235 3.2 6.4 0.00 0.00 0.00 91 1015.5
20260902115845 22 213 3.2 6.4 0.00 0.00 0.00 91 1017.5
20260902115330 22 213 3.2 6.4 0.00 0.00 0.00 91 1017.5
20260902114839 22 213 3.2 6.4 0.00 0.00 0.00 92 1017.5
20260902114531 22 212 1.6 6.4 0.00 0.00 0.00 92 1015.4
20260902114330 22 212 4.8 6.4 0.00 0.00 0.00 92 1017.4
20260902113837 22 212 3.2 6.4 0.00 0.00 0.00 91 1017.4
20260902113325 22 212 3.2 6.4 0.00 0.00 0.00 91 1017.3
20260902113032 22 212 1.6 6.4 0.00 0.00 0.00 91 1015.2
20260902112832 22 212 3.2 6.4 0.00 0.00 0.00 91 1017.3
20260902112359 22 212 3.2 6.4 0.00 0.00 0.00 91 1017.2
20260902111825 22 212 3.2 6.4 0.00 0.00 0.00 91 1017.2
20260902111634 22 212 3.2 6.4 0.00 0.00 0.00 91 1015.2
20260902111332 22 212 3.2 6.4 0.00 0.00 0.00 91 1017.3
20260902110841 22 211 3.2 6.4 0.00 0.00 0.00 91 1017.2
20260902110327 22 211 3.2 4.8 0.00 0.00 0.00 91 1017.2
20260902110039 22 211 1.6 4.8 0.00 0.00 0.00 91 1015.1
20260902105835 22 211 1.6 4.8 0.00 0.00 0.00 91 1017.1
20260902105328 22 211 3.2 4.8 0.00 0.00 0.00 91 1017.2
20260902104837 22 211 3.2 4.8 0.00 0.00 0.00 91 1017.1
20260902104525 22 211 1.6 4.8 0.00 0.00 0.00 91 1015.2
20260902104324 22 211 1.6 4.8 0.00 0.00 0.00 91 1017.1
20260902103853 22 211 3.2 4.8 0.00 0.00 0.00 91 1017.2
20260902103340 22 211 1.6 6.4 0.00 0.00 0.00 91 1017.2
20260902103029 22 211 0.0 6.4 0.00 0.00 0.00 91 1015.1
20260902102827 22 211 1.6 6.4 0.00 0.00 0.00 91 1017.1
20260902102356 22 212 3.2 6.4 0.00 0.00 0.00 91 1017.2
20260902101824 22 212 1.6 4.8 0.00 0.00 0.00 91 1017.2
20260902101535 22 212 1.6 4.8 0.00 0.00 0.00 91 1015.2
20260902101332 22 212 3.2 4.8 0.00 0.00 0.00 91 1017.2
20260902100822 22 212 1.6 3.2 0.00 0.00 0.00 90 1017.1
20260902100330 22 212 1.6 3.2 0.00 0.00 0.00 90 1017.1
20260902100052 22 212 0.0 3.2 0.00 0.00 0.00 90 1015.1
20260902095842 23 212 0.0 3.2 0.00 0.00 0.00 90 1017.1
20260902095330 23 213 1.6 3.2 0.00 0.00 0.00 90 1017.1
20260902094837 23 213 1.6 3.2 0.00 0.00 0.00 90 1017.1
20260902094528 22 213 1.6 3.2 0.00 0.00 0.00 90 1015.0
20260902094326 23 213 1.6 3.2 0.00 0.00 0.00 90 1017.0
20260902093833 23 213 1.6 3.2 0.00 0.00 0.00 90 1016.9
20260902093340 23 213 0.0 3.2 0.00 0.00 0.00 90 1016.8
20260902093048 22 213 0.0 3.2 0.00 0.00 0.00 89 1014.9
20260902092847 23 213 1.6 3.2 0.00 0.00 0.00 89 1016.9
20260902092335 23 213 0.0 3.2 0.00 0.00 0.00 89 1016.9
20260902091822 23 213 0.0 4.8 0.00 0.00 0.00 89 1016.8
20260902091555 23 213 0.0 4.8 0.00 0.00 0.00 89 1014.8
20260902091351 23 213 1.6 4.8 0.00 0.00 0.00 89 1016.9
20260902090858 23 213 0.0 4.8 0.00 0.00 0.00 89 1016.9
20260902090324 23 213 3.2 4.8 0.00 0.00 0.00 89 1016.9
20260902090033 23 213 1.6 4.8 0.00 0.00 0.00 89 1014.8
20260902085831 23 213 3.2 4.8 0.00 0.00 0.00 89 1016.9
20260902085323 23 213 3.2 6.4 0.00 0.00 0.00 89 1016.9
20260902084829 23 213 3.2 6.4 0.00 0.00 0.00 89 1016.7
20260902084538 23 211 1.6 6.4 0.00 0.00 0.00 89 1014.6
20260902084337 23 208 3.2 6.4 0.00 0.00 0.00 89 1016.7
20260902083825 23 208 3.2 6.4 0.00 0.00 0.00 89 1016.6
20260902083334 23 208 3.2 6.4 0.00 0.00 0.00 89 1016.5
20260902083021 23 208 1.6 4.8 0.00 0.00 0.00 89 1014.5
20260902082821 23 208 3.2 4.8 0.00 0.00 0.00 89 1016.6
20260902082329 23 208 1.6 6.4 0.00 0.00 0.00 89 1016.5
20260902081856 23 208 3.2 6.4 0.00 0.00 0.00 89 1016.4
20260902081525 23 208 1.6 4.8 0.00 0.00 0.00 89 1014.4
20260902081324 23 208 3.2 4.8 0.00 0.00 0.00 89 1016.3
20260902080833 23 208 0.0 3.2 0.00 0.00 0.00 89 1016.4
20260902080324 23 208 1.6 3.2 0.00 0.00 0.00 89 1016.4
20260902080034 23 208 1.6 4.8 0.00 0.00 0.00 89 1014.2
20260902075833 23 208 1.6 4.8 0.00 0.00 0.00 89 1016.4
20260902075339 23 208 1.6 4.8 0.00 0.00 0.00 88 1016.4
20260902074827 23 208 1.6 3.2 0.00 0.00 0.00 88 1016.3
20260902074538 23 208 1.6 3.2 0.00 0.00 0.00 88 1014.2
20260902074333 23 208 1.6 3.2 0.00 0.00 0.00 88 1016.4
20260902073841 23 208 1.6 3.2 0.00 0.00 0.00 88 1016.4
20260902073328 23 208 1.6 3.2 0.00 0.00 0.00 88 1016.3
20260902073036 23 208 0.0 3.2 0.00 0.00 0.00 88 1014.2
20260902072836 23 208 0.0 4.8 0.00 0.00 0.00 88 1016.3
20260902072325 23 208 1.6 4.8 0.00 0.00 0.00 87 1016.3
20260902071832 23 208 1.6 4.8 0.00 0.00 0.00 87 1016.5
20260902071545 23 208 1.6 4.8 0.00 0.00 0.00 87 1014.3
20260902071343 24 208 1.6 4.8 0.00 0.00 0.00 87 1016.3
20260902070830 24 208 1.6 4.8 0.00 0.00 0.00 87 1016.4
20260902070337 24 208 3.2 4.8 0.00 0.00 0.00 87 1016.4
20260902070025 23 208 0.0 4.8 0.00 0.00 0.00 87 1014.3
20260902065824 24 208 3.2 4.8 0.00 0.00 0.00 87 1016.4
20260902065352 24 208 3.2 6.4 0.00 0.00 0.00 86 1016.4
20260902064838 24 208 1.6 6.4 0.00 0.00 0.00 86 1016.4
20260902064529 23 208 1.6 4.8 0.00 0.00 0.00 86 1014.3
20260902064329 24 208 1.6 4.8 0.00 0.00 0.00 86 1016.5
20260902063836 24 207 3.2 3.2 0.00 0.00 0.00 86 1016.4
20260902063343 24 207 1.6 3.2 0.00 0.00 0.00 86 1016.5
20260902063041 24 207 0.0 3.2 0.00 0.00 0.00 86 1014.4
20260902062831 24 207 1.6 6.4 0.00 0.00 0.00 86 1016.4
20260902062339 24 208 3.2 6.4 0.00 0.00 0.00 86 1016.5
20260902061830 24 207 3.2 6.4 0.00 0.00 0.00 86 1016.5
20260902061539 24 207 3.2 4.8 0.00 0.00 0.00 86 1014.4
20260902061338 24 207 3.2 4.8 0.00 0.00 0.00 86 1016.4
20260902060826 24 207 3.2 4.8 0.00 0.00 0.00 86 1016.5
20260902060354 25 206 1.6 4.8 0.00 0.00 0.00 86 1016.5
20260902060022 24 206 1.6 4.8 0.00 0.00 0.00 86 1014.3
20260902055822 25 206 3.2 4.8 0.00 0.00 0.00 86 1016.4
20260902055330 25 206 1.6 4.8 0.00 0.00 0.00 86 1016.5
20260902054838 25 206 3.2 6.4 0.00 0.00 0.00 86 1016.5
20260902054537 24 206 3.2 6.4 0.00 0.00 0.00 86 1014.4
20260902054328 25 206 3.2 6.4 0.00 0.00 0.00 86 1016.5
20260902053835 25 208 3.2 4.8 0.00 0.00 0.00 86 1016.4
20260902053343 25 209 3.2 4.8 0.00 0.00 0.00 86 1016.5
20260902053051 25 210 1.6 4.8 0.00 0.00 0.00 86 1014.4
20260902052850 25 211 3.2 4.8 0.00 0.00 0.00 86 1016.5
20260902052321 25 211 3.2 4.8 0.00 0.00 0.00 85 1016.4
20260902051828 25 212 1.6 4.8 0.00 0.00 0.00 85 1016.5
20260902051543 25 211 1.6 4.8 0.00 0.00 0.00 85 1014.3
20260902051336 25 212 1.6 3.2 0.00 0.00 0.00 85 1016.4
20260902050824 25 212 1.6 3.2 0.00 0.00 0.00 85 1016.5
20260902050333 25 212 1.6 3.2 0.00 0.00 0.00 85 1016.4
20260902050057 25 212 1.6 3.2 0.00 0.00 0.00 85 1014.4
20260902045839 25 212 1.6 3.2 0.00 0.00 0.00 85 1016.4
20260902045329 25 212 1.6 4.8 0.00 0.00 0.00 84 1016.4
20260902044836 25 212 1.6 4.8 0.00 0.00 0.00 84 1016.5
20260902044524 25 212 0.0 4.8 0.00 0.00 0.00 84 1014.3
20260902044323 25 212 1.6 4.8 0.00 0.00 0.00 84 1016.5
20260902043830 25 214 3.2 4.8 0.00 0.00 0.00 84 1016.5
20260902043322 25 214 1.6 4.8 0.00 0.00 0.00 84 1016.5
20260902043036 25 214 1.6 4.8 0.00 0.00 0.00 84 1014.4
20260902042829 25 214 1.6 6.4 0.00 0.00 0.00 84 1016.5
20260902042337 25 215 3.2 8.0 0.00 0.00 0.00 84 1016.5
20260902041824 25 220 3.2 8.0 0.00 0.00 0.00 83 1016.6
20260902041535 25 202 1.6 6.4 0.00 0.00 0.00 83 1014.4
20260902041334 25 202 3.2 8.0 0.00 0.00 0.00 83 1016.5
20260902040821 26 202 4.8 8.0 0.00 0.00 0.00 83 1016.6
20260902040329 26 202 3.2 6.4 0.00 0.00 0.00 83 1016.6
20260902040138 25 202 1.6 6.4 0.00 0.00 0.00 83 1014.4
20260902035836 26 202 4.8 6.4 0.00 0.00 0.00 83 1016.5
20260902035324 26 203 3.2 6.4 0.00 0.00 0.00 83 1016.5
20260902034836 26 202 3.2 6.4 0.00 0.00 0.00 83 1016.5
20260902034544 25 202 1.6 6.4 0.00 0.00 0.00 83 1014.4
20260902034343 26 202 3.2 6.4 0.00 0.00 0.00 83 1016.5
20260902033830 26 202 4.8 8.0 0.00 0.00 0.00 83 1016.6
20260902033338 26 212 3.2 6.4 0.00 0.00 0.00 83 1016.6
20260902033030 26 212 1.6 6.4 0.00 0.00 0.00 83 1014.3
20260902032827 26 212 4.8 6.4 0.00 0.00 0.00 83 1016.5
20260902032335 26 220 4.8 6.4 0.00 0.00 0.00 83 1016.6
20260902031823 26 206 4.8 6.4 0.00 0.00 0.00 83 1016.5
20260902031532 26 207 3.2 8.0 0.00 0.00 0.00 83 1014.4
20260902031331 26 209 3.2 8.0 0.00 0.00 0.00 83 1016.5
20260902030839 26 210 3.2 8.0 0.00 0.00 0.00 83 1016.6
20260902030325 26 201 3.2 8.0 0.00 0.00 0.00 83 1016.5
20260902030053 26 201 3.2 6.4 0.00 0.00 0.00 83 1014.4
20260902025853 26 201 4.8 8.0 0.00 0.00 0.00 83 1016.5
20260902025324 26 200 3.2 4.8 0.00 0.00 0.00 83 1016.6
20260902024833 26 200 4.8 4.8 0.00 0.00 0.00 83 1016.5
20260902024503 26 200 3.2 6.4 0.00 0.00 0.00 83 1014.4
20260902024400 26 201 3.2 6.4 0.00 0.00 0.00 83 1016.5
20260902023826 27 201 3.2 6.4 0.00 0.00 0.00 83 1016.5
20260902023333 27 198 3.2 8.0 0.00 0.00 0.00 83 1016.4
20260902023022 26 191 1.6 8.0 0.00 0.00 0.00 82 1014.4
20260902022822 27 189 4.8 8.0 0.00 0.00 0.00 82 1016.3
20260902022331 27 194 3.2 8.0 0.00 0.00 0.00 82 1016.3
20260902021838 27 192 3.2 8.0 0.00 0.00 0.00 82 1016.3
20260902021525 27 192 1.6 8.0 0.00 0.00 0.00 82 1014.1
20260902021325 27 192 3.2 8.0 0.00 0.00 0.00 82 1016.3
20260902020835 27 192 3.2 8.0 0.00 0.00 0.00 82 1016.3
20260902020326 27 193 4.8 8.0 0.00 0.00 0.00 82 1016.3
20260902020136 27 193 1.6 8.0 0.00 0.00 0.00 82 1014.2
20260902015833 27 193 3.2 9.7 0.00 0.00 0.00 82 1016.4
20260902015320 27 191 4.8 9.7 0.00 0.00 0.00 82 1016.4
20260902014828 27 200 4.8 8.0 0.00 0.00 0.00 81 1016.6
20260902014537 27 201 3.2 8.0 0.00 0.00 0.00 81 1014.3
20260902014337 27 191 3.2 8.0 0.00 0.00 0.00 81 1016.5
20260902013845 27 196 6.4 8.0 0.00 0.00 0.00 81 1016.5
20260902013333 27 195 3.2 8.0 0.00 0.00 0.00 80 1016.4
20260902013021 27 195 3.2 8.0 0.00 0.00 0.00 80 1014.3
20260902012820 28 195 1.6 4.8 0.00 0.00 0.00 80 1016.4
20260902012348 28 195 3.2 8.0 0.00 0.00 0.00 80 1016.2
20260902011834 28 194 4.8 8.0 0.00 0.00 0.00 79 1016.1
20260902011534 28 194 3.2 8.0 0.00 0.00 0.00 79 1013.9
20260902011326 28 194 3.2 6.4 0.00 0.00 0.00 79 1016.1
20260902010834 28 193 3.2 6.4 0.00 0.00 0.00 78 1016.1
20260902010321 28 193 3.2 4.8 0.00 0.00 0.00 78 1016.0
20260902010030 28 193 1.6 4.8 0.00 0.00 0.00 77 1013.7
20260902005830 28 193 3.2 4.8 0.00 0.00 0.00 77 1015.9
20260902005357 29 193 3.2 4.8 0.00 0.00 0.00 76 1015.9
20260902004846 29 195 3.2 4.8 0.00 0.00 0.00 76 1015.8
20260902004554 29 195 0.0 3.2 0.00 0.00 0.00 75 1013.6
20260902004353 30 195 1.6 4.8 0.00 0.00 0.00 75 1015.7
20260902003838 30 195 1.6 4.8 0.00 0.00 0.00 75 1015.7
20260902003326 30 195 1.6 4.8 0.00 0.00 0.00 74 1015.7
20260902003036 30 195 1.6 6.4 0.00 0.00 0.00 74 1013.5
20260902002834 30 195 1.6 4.8 0.00 0.00 0.00 74 1015.5
20260902002341 30 195 3.2 4.8 0.00 0.00 0.00 73 1015.7
20260902001829 31 195 1.6 4.8 0.00 0.00 0.00 72 1015.7
20260902001522 30 195 1.6 4.8 0.00 0.00 0.00 72 1013.7
20260902001321 31 195 1.6 6.4 0.00 0.00 0.00 71 1015.8
20260902000830 31 196 1.6 4.8 0.00 0.00 0.00 71 1015.9
20260902000337 31 196 3.2 4.8 0.00 0.00 0.00 70 1016.0
20260902000026 31 196 1.6 4.8 0.00 0.00 0.00 70 1013.8
20260901235826 31 196 1.6 4.8 0.00 0.00 0.00 69 1016.0
20260901235355 32 196 4.8 8.0 0.00 0.00 0.00 69 1016.0
20260901234823 32 195 1.6 8.0 0.00 0.00 0.00 69 1016.1
20260901234532 32 197 3.2 6.4 0.00 0.00 0.00 68 1013.9
20260901234331 32 196 3.2 4.8 0.00 0.00 0.00 68 1016.1
20260901233820 32 197 3.2 6.4 0.00 0.00 0.00 68 1016.1
20260901233328 32 201 3.2 6.4 0.00 0.00 0.00 67 1016.2
20260901233037 32 202 0.0 3.2 0.00 0.00 0.00 67 1014.0
20260901232837 32 202 1.6 4.8 0.00 0.00 0.00 67 1016.1
20260901232328 32 203 1.6 6.4 0.00 0.00 0.00 65 1016.2
20260901231835 32 203 3.2 6.4 0.00 0.00 0.00 64 1016.3
20260901231526 32 203 4.8 6.4 0.00 0.00 0.00 64 1014.1
20260901231321 33 197 4.8 8.0 0.00 0.00 0.00 64 1016.2
20260901230831 33 191 4.8 9.7 0.00 0.00 0.00 64 1016.3
20260901230339 33 191 6.4 9.7 0.00 0.00 0.00 63 1016.2
20260901225826 33 206 6.4 9.7 0.00 0.00 0.00 63 1016.2
20260901225333 33 195 3.2 11.3 0.00 0.00 0.00 63 1016.2
20260901224820 33 214 4.8 8.0 0.00 0.00 0.00 62 1016.2
20260901224535 33 195 4.8 9.7 0.00 0.00 0.00 62 1013.9
20260901224329 33 197 8.0 9.7 0.00 0.00 0.00 62 1016.2
20260901223838 33 197 4.8 8.0 0.00 0.00 0.00 62 1016.3
20260901223329 33 218 3.2 9.7 0.00 0.00 0.00 62 1016.2
20260901223106 33 219 4.8 9.7 0.00 0.00 0.00 62 1014.0
20260901222857 33 211 4.8 11.3 0.00 0.00 0.00 62 1016.2
20260901222325 33 237 6.4 11.3 0.00 0.00 0.00 61 1016.2
20260901221853 33 230 4.8 12.9 0.00 0.00 0.00 60 1016.2
20260901221502 33 235 8.0 12.9 0.00 0.00 0.00 60 1013.9
20260901221400 33 222 6.4 12.9 0.00 0.00 0.00 60 1016.1
20260901220828 33 262 6.4 11.3 0.00 0.00 0.00 60 1016.1
20260901220337 33 228 6.4 14.5 0.00 0.00 0.00 60 1016.1
20260901220029 33 249 8.0 14.5 0.00 0.00 0.00 60 1014.0
20260901215823 33 237 6.4 14.5 0.00 0.00 0.00 61 1016.1
20260901215330 33 222 6.4 14.5 0.00 0.00 0.00 60 1016.1
20260901214839 33 210 4.8 12.9 0.00 0.00 0.00 61 1016.1
20260901214529 33 202 8.0 12.9 0.00 0.00 0.00 60 1013.7
20260901214327 33 249 9.7 11.3 0.00 0.00 0.00 60 1016.0
20260901213835 33 260 3.2 12.9 0.00 0.00 0.00 61 1016.0
20260901213346 33 218 8.0 14.5 0.00 0.00 0.00 59 1016.1
20260901213134 33 218 9.7 19.3 0.00 0.00 0.00 60 1013.8
20260901212833 33 278 6.4 19.3 0.00 0.00 0.00 60 1016.1
20260901212321 33 252 9.7 17.7 0.00 0.00 0.00 60 1016.1
20260901211831 33 247 8.0 16.1 0.00 0.00 0.00 59 1016.0
20260901211540 33 222 8.0 16.1 0.00 0.00 0.00 61 1013.9
20260901211339 33 234 9.7 22.5 0.00 0.00 0.00 60 1016.1
20260901210826 33 241 11.3 22.5 0.00 0.00 0.00 60 1016.1
20260901210335 33 212 14.5 19.3 0.00 0.00 0.00 59 1016.1
20260901210026 33 249 12.9 19.3 0.00 0.00 0.00 58 1013.9
20260901205822 33 264 11.3 19.3 0.00 0.00 0.00 60 1016.1
20260901205330 33 253 9.7 19.3 0.00 0.00 0.00 61 1016.2
20260901204823 33 240 9.7 16.1 0.00 0.00 0.00 60 1016.2
20260901204539 33 200 6.4 16.1 0.00 0.00 0.00 61 1014.0
20260901204332 33 207 3.2 17.7 0.00 0.00 0.00 62 1016.3
20260901203820 33 261 12.9 17.7 0.00 0.00 0.00 61 1016.2
20260901203328 33 237 11.3 22.5 0.00 0.00 0.00 61 1016.3
20260901203041 33 218 8.0 22.5 0.00 0.00 0.00 62 1014.2
20260901202838 33 227 9.7 22.5 0.00 0.00 0.00 61 1016.3
20260901202324 33 191 9.7 19.3 0.00 0.00 0.00 62 1016.4
20260901201832 33 254 12.9 19.3 0.00 0.00 0.00 61 1016.3
20260901201521 33 247 9.7 14.5 0.00 0.00 0.00 61 1014.1
20260901201320 33 226 9.7 14.5 0.00 0.00 0.00 61 1016.4
20260901200829 33 243 8.0 17.7 0.00 0.00 0.00 61 1016.3
20260901200321 33 244 8.0 17.7 0.00 0.00 0.00 61 1016.4
20260901200029 33 212 4.8 22.5 0.00 0.00 0.00 62 1014.1